Total_Precipitation_Accumulation
0.28 0.35 0.34 0.24 0.17 0.15 0.21 0.26 0.29 0.23 0.19 0.26 0.40 0.46 0.38 0.38 0.41 0.41 0.51 0.50 0.44 0.39 0.33 0.34 0.36 0.37 0.42 0.50 0.55 0.58 0.60 0.65 0.75 0.90 1.06 1.24 1.40 1.53
0.34 0.35 0.37 0.35 0.32 0.24 0.23 0.26 0.30 0.30 0.27 0.25 0.39 0.47 0.50 0.41 0.44 0.48 0.50 0.47 0.41 0.37 0.31 0.28 0.30 0.32 0.33 0.35 0.40 0.46 0.47 0.45 0.49 0.56 0.63 0.71 0.78 0.92
0.57 0.50 0.45 0.44 0.43 0.37 0.34 0.30 0.30 0.33 0.38 0.39 0.48 0.60 0.63 0.55 0.55 0.52 0.49 0.49 0.40 0.37 0.34 0.31 0.29 0.28 0.31 0.31 0.32 0.33 0.37 0.38 0.38 0.38 0.41 0.46 0.48 0.51
0.69 0.73 0.63 0.56 0.51 0.43 0.39 0.37 0.35 0.39 0.44 0.53 0.60 0.67 0.69 0.67 0.63 0.50 0.41 0.39 0.43 0.41 0.36 0.34 0.33 0.31 0.28 0.27 0.27 0.26 0.28 0.30 0.32 0.31 0.31 0.33 0.38 0.40
0.46 0.66 0.75 0.72 0.60 0.52 0.46 0.41 0.40 0.40 0.42 0.48 0.58 0.74 0.85 0.83 0.62 0.40 0.34 0.37 0.38 0.47 0.44 0.35 0.32 0.32 0.29 0.26 0.24 0.22 0.22 0.24 0.26 0.29 0.28 0.27 0.28 0.29
0.27 0.38 0.55 0.71 0.69 0.62 0.53 0.47 0.47 0.49 0.50 0.51 0.59 0.76 0.93 0.98 0.75 0.48 0.37 0.35 0.35 0.33 0.34 0.31 0.30 0.29 0.28 0.25 0.23 0.22 0.21 0.23 0.25 0.25 0.27 0.27 0.25 0.23
0.27 0.28 0.32 0.46 0.61 0.67 0.61 0.56 0.56 0.57 0.57 0.55 0.61 0.77 0.92 1.00 0.78 0.56 0.43 0.39 0.37 0.35 0.29 0.25 0.23 0.21 0.22 0.24 0.24 0.22 0.20 0.21 0.24 0.26 0.27 0.26 0.25 0.23
0.43 0.41 0.37 0.36 0.42 0.52 0.60 0.62 0.61 0.59 0.59 0.60 0.62 0.75 0.87 0.92 0.96 0.80 0.59 0.42 0.35 0.34 0.33 0.31 0.29 0.28 0.23 0.21 0.23 0.24 0.23 0.22 0.21 0.23 0.24 0.27 0.26 0.24
0.57 0.57 0.42 0.31 0.38 0.44 0.52 0.55 0.55 0.52 0.52 0.57 0.61 0.71 0.97 1.14 1.25 0.98 0.78 0.65 0.50 0.44 0.39 0.35 0.36 0.33 0.28 0.26 0.31 0.28 0.26 0.25 0.22 0.20 0.21 0.22 0.25 0.26
0.55 0.62 0.56 0.47 0.44 0.47 0.47 0.44 0.43 0.41 0.38 0.39 0.46 0.63 0.88 1.23 1.42 1.38 1.26 1.05 0.88 0.69 0.52 0.40 0.36 0.32 0.32 0.29 0.33 0.32 0.29 0.28 0.27 0.26 0.22 0.21 0.23 0.25
0.48 0.52 0.56 0.53 0.44 0.36 0.40 0.35 0.33 0.34 0.31 0.33 0.37 0.54 0.73 0.99 1.33 1.49 1.42 1.19 0.96 0.72 0.52 0.40 0.34 0.31 0.28 0.27 0.29 0.33 0.31 0.29 0.29 0.30 0.30 0.27 0.25 0.28
0.51 0.57 0.60 0.55 0.43 0.32 0.37 0.41 0.35 0.31 0.33 0.33 0.35 0.41 0.54 0.71 1.01 1.18 1.14 1.06 0.88 0.69 0.47 0.39 0.33 0.36 0.31 0.25 0.22 0.22 0.24 0.28 0.30 0.31 0.31 0.32 0.31 0.24
0.46 0.49 0.59 0.54 0.41 0.29 0.32 0.36 0.31 0.32 0.39 0.39 0.41 0.45 0.56 0.68 0.81 1.02 1.06 0.94 0.81 0.62 0.45 0.43 0.36 0.34 0.32 0.25 0.22 0.20 0.18 0.19 0.22 0.26 0.31 0.33 0.34 0.30
0.49 0.53 0.60 0.58 0.44 0.35 0.31 0.30 0.25 0.23 0.31 0.37 0.37 0.38 0.45 0.55 0.72 0.91 1.07 1.04 0.89 0.76 0.65 0.59 0.51 0.42 0.34 0.26 0.21 0.19 0.20 0.19 0.19 0.21 0.24 0.32 0.33 0.35
0.55 0.70 0.74 0.70 0.60 0.49 0.42 0.40 0.31 0.26 0.29 0.32 0.33 0.31 0.35 0.47 0.70 0.95 1.14 1.24 1.14 0.96 0.85 0.73 0.64 0.57 0.51 0.34 0.23 0.19 0.19 0.22 0.22 0.21 0.22 0.24 0.25 0.29
0.47 0.66 0.79 0.85 0.81 0.70 0.61 0.55 0.41 0.34 0.35 0.35 0.36 0.40 0.47 0.59 0.75 0.84 0.98 1.12 1.16 1.03 0.89 0.81 0.72 0.69 0.62 0.47 0.33 0.23 0.18 0.19 0.21 0.23 0.25 0.26 0.27 0.29
0.39 0.66 0.87 1.01 1.05 1.03 0.91 0.81 0.69 0.58 0.49 0.49 0.52 0.53 0.56 0.63 0.70 0.83 0.96 1.01 0.98 0.84 0.78 0.79 0.80 0.78 0.75 0.67 0.49 0.31 0.23 0.18 0.17 0.23 0.29 0.29 0.28 0.28
0.37 0.63 0.86 1.04 1.11 1.22 1.23 1.15 0.99 0.83 0.74 0.71 0.68 0.67 0.68 0.67 0.71 0.85 1.00 1.04 0.94 0.81 0.72 0.68 0.77 0.85 0.83 0.71 0.56 0.37 0.26 0.21 0.19 0.22 0.27 0.30 0.27 0.25
0.40 0.57 0.68 0.83 1.01 1.20 1.28 1.27 1.11 0.98 1.00 0.98 0.88 0.83 0.83 0.80 0.78 0.86 0.99 1.06 1.04 0.93 0.84 0.76 0.77 0.78 0.71 0.54 0.40 0.37 0.33 0.26 0.27 0.27 0.27 0.27 0.24 0.23
0.37 0.47 0.53 0.65 0.83 1.08 1.24 1.30 1.23 1.12 1.11 1.12 1.08 1.01 0.99 0.93 0.86 0.83 0.93 1.01 1.04 1.02 0.97 0.88 0.73 0.65 0.59 0.50 0.45 0.40 0.37 0.42 0.39 0.34 0.30 0.31 0.31 0.35
0.38 0.44 0.48 0.58 0.73 0.93 1.13 1.27 1.30 1.23 1.17 1.22 1.22 1.12 1.08 1.02 0.91 0.83 0.87 0.98 1.06 1.07 0.95 0.82 0.70 0.73 0.87 0.92 0.75 0.54 0.46 0.45 0.51 0.48 0.46 0.47 0.43 0.41
0.51 0.52 0.57 0.66 0.79 1.01 1.19 1.29 1.33 1.30 1.25 1.27 1.26 1.18 1.12 1.09 0.98 0.93 0.93 0.97 0.98 0.99 0.96 0.96 1.06 1.09 1.05 0.96 0.73 0.57 0.55 0.55 0.59 0.64 0.60 0.54 0.46 0.39
0.58 0.57 0.58 0.65 0.81 1.01 1.16 1.28 1.32 1.32 1.31 1.27 1.24 1.17 1.11 1.10 1.07 1.03 0.97 0.97 1.01 1.05 1.16 1.20 1.19 1.16 1.04 0.95 0.87 0.77 0.70 0.71 0.73 0.68 0.53 0.46 0.44 0.41